Regional Weather Roundup
Issued by NWS Newport/Morehead, NC

Current Version | Previous Version | Text Only | Print | Product List | Glossary Off
Versions: 1 2 3 4 5 6 7 8 9 10 11 12 13 14 15 16 17 18 19 20 21 22 23 24 25 26 27 28 29 30 31 32 33 34 35 36 37 38 39 40 41 42 43 44 45 46 47 48 49 50
598 ASUS42 KMHX 132325 RWRMHX WEATHER ROUNDUP FOR EASTERN NORTH CAROLINA NATIONAL WEATHER SERVICE NEWPORT/MOREHEAD CITY NC 600 PM EST SAT FEB 13 2016 NOTE: "FAIR" INDICATES FEW OR NO CLOUDS BELOW 12,000 FEET WITH NO SIGNIFICANT WEATHER AND/OR OBSTRUCTIONS TO VISIBILITY NCZ015>017-031-032-045>047-102-103-140000- NORTH COAST CITY SKY/WX TMP DP RH WIND PRES REMARKS EDENTON CLEAR 32 0 26 NW8 30.32R ELIZABETH CITY CLEAR 27 5 39 W15 30.31R WCI 15 KITTY HAWK CLEAR 29 2 31 NW5 30.28R MANTEO CLEAR 30 5 34 N7G16 30.30R $$ NCZ045>047-081-094-103-104-140000- CENTRAL COAST CITY SKY/WX TMP DP RH WIND PRES REMARKS FRISCO CLEAR 32 8 36 NW12G20 30.29R SWANQUARTER N/A 28 N/A N/A NW8G17 30.30R $$ NCZ095-097-098-100-101-140000- SOUTHERN COAST CITY SKY/WX TMP DP RH WIND PRES REMARKS BEAUFORT CLEAR 33 8 35 NW15 30.32R CEDAR ISLAND N/A 34 N/A N/A NW29 30.36R JACKSONVILLE CLEAR 33 4 29 NW14 30.32R PINEY ISLAND CLEAR N/A N/A N/A NW16 30.31R WILMINGTON CLEAR 36 6 28 N7 30.31R $$ NCZ011>013-027>030-043-044-078>080-089-090>093-098-140000- COASTAL PLAIN CITY SKY/WX TMP DP RH WIND PRES REMARKS AHOSKIE CLEAR 28 -1 28 W3 30.34R CLINTON CLEAR 33 7 33 NW6 30.34R ELIZABETHTOWN CLEAR 35 5 28 N3 30.33R GOLDSBORO CLEAR 32 0 25 NW10 30.32R GREENVILLE CLEAR 32 3 29 N6 30.34R HAVELOCK CLEAR 33 5 30 NW15 30.33R KENANSVILLE CLEAR 32 7 34 CALM 30.35R KINSTON CLEAR 32 1 27 NW9 30.34R NEW BERN CLEAR 32 5 32 NW9 30.33R RICHLANDS CLEAR 30 5 34 CALM 30.34R ROCKY MOUNT CLEAR 30 1 29 NW8 30.34R WASHINGTON CLEAR 30 1 28 NW8 30.32R WHITEVILLE CLEAR 37 6 27 CALM 30.32R $$ AMZ130-135-150-152-154-156-158-170-250-252-270-ANZ085-086-088-633-658-670-140000- MARINE OBSERVATIONS STATION/POSITION TIME TEMP WIND PRES WAVE SWELL AIR SEA DIR/SP/G HT/PER HT/PER (UTC) (F) (DEG/KT/KT) (MB) (FT/S) (FT/S) CHESAPEAKE LIGHT 2300 27 340/ 22/ 25 1026.4 64 E VA BEACH 2250 30 49 330/ 23/ 29 1024.2 9/ 7 DUCK 2300 31 1025.2 2 E DUCK 2211 42 N/A 4/ 6 OREGON INLET 2300 30 39 1025.8 13E OREGON INLT 2300 46 N/A 6/ 8 HATTERAS CG 2300 33 43 1025.2 DIAMOND BUOY 2250 36 72 330/ 17/ 25 1025.1 5/ 8 3/ 8 CAPE LOOKOUT NOT AVBL BEAUFORT LAB 2300 33 42 1025.5 30 SE NEW RVR IN 2308 38 60 1025.3 30 SE NEW RVR IN 2225 60 N/A 4/ 5 27 SE WRIGHTSVLE 2308 39 59 360/ 17/ 27 1024.7 5 SE WRIGHTSVLE 2208 39 50 350/ 16/ 25 1025.9 225 S CAPE HAT 2250 51 68 340/ 21/ 29 N/A 9/ 8 41 SE CHARLESTON 2250 45 66 360/ 8/ 12 1025.7 4/ 6 3/ 6 $$

USA.gov is the U.S. government's official web portal to all federal, state and local government web resources and services.